Home > Time Zones > World Clock > Weather > U.S.A. > Nome > Past weeks

Flag for U.S.A. Weather past 2 weeks in Nome, Alaska, U.S.A.

Now
51 °F

Drizzle. Fog.


Feels Like: 47 °F
Forecast: 51 / 56 °F
Wind: 13 mph from Southwest

Location: Nome Airport

Current Time: Jul 31, 2014 at 4:16:22 AM

Latest Report: Jul 31, 2014 at 2:53 AM


Visibility: 2 mi

Pressure: 30.22 "Hg

Humidity: 100%

Dew point: 51 °F

Location of NomeLocation

Historic Weather in Nome — Graph

°F

Nome temperature yesterday

Maximum temperature yesterday: 58 °F (at 10:53 AM)
Minimum temperature yesterday: 44 °F (at 6:53 AM)
Average temperature yesterday: 53 °F

Past Weeks' High & Low Weather Summary

 TemperatureHumidityPressure
High65 °F (Jul 29, 9:53 PM)100% (Jul 16, 2:53 AM)30.29 "Hg (Jul 16, 2:53 AM)
Low35 °F (Jul 25, 4:53 AM)42% (Jul 24, 2:53 PM)29.43 "Hg (Jul 19, 9:53 AM)
Average49 °F82%29.94 "Hg
* Reported Jul 16 2:53 AM — Jul 31 2:53 AM, Nome, Weather by CustomWeather, © 2014

Note: Actual official high and low records may vary slightly from our data, if they occured in-between our weather recording intervals... More about our weather records

Advertising

Nome weather history for previous 24 hours

 ConditionsComfort  
Time TempWeatherWind HumidityBarometerVisibility
2:53 AM
Jul 31
51 °FDrizzle. Fog.13 mph100%30.22 "Hg2 mi
1:53 AM52 °FMostly cloudy.10 mph100%30.22 "Hg8 mi
12:53 AM52 °FFog.12 mph100%30.23 "Hg4 mi
11:53 PM
Jul 30
53 °FFog.10 mph100%30.24 "Hg2 mi
10:55 PM53 °FLight rain. Fog.8 mph96%30.24 "Hg2 mi
9:55 PM53 °FLight rain. Fog.7 mph100%30.24 "Hg5 mi
8:53 PM53 °FLight rain. Mostly cloudy.No wind93%30.25 "Hg8 mi
7:53 PM54 °FLight rain. Mostly cloudy.5 mph90%30.26 "Hg10 mi
6:53 PM54 °FLight rain. Overcast.8 mph90%30.26 "Hg8 mi
5:53 PM55 °FCloudy.9 mph80%30.27 "Hg10 mi
4:53 PM56 °FCloudy.10 mph75%30.27 "Hg10 mi
3:53 PM58 °FCloudy.8 mph75%30.28 "Hg10 mi
2:53 PM58 °FMore clouds than sun.9 mph72%30.27 "Hg10 mi
1:53 PM57 °FCloudy.7 mph78%30.28 "Hg10 mi
12:53 PM56 °FCloudy.5 mph84%30.27 "Hg10 mi
11:53 AM56 °FMore clouds than sun.6 mph77%30.27 "Hg10 mi
10:53 AM58 °FPassing clouds.No wind67%30.27 "Hg10 mi
9:53 AM54 °FMore clouds than sun.No wind77%30.27 "Hg10 mi
8:53 AM51 °FMore clouds than sun.No wind80%30.27 "Hg10 mi
7:53 AM48 °FMore clouds than sun.No wind89%30.27 "Hg10 mi
6:53 AM44 °FBroken clouds.6 mph85%30.26 "Hg10 mi
5:53 AM45 °FPassing clouds.No wind90%30.26 "Hg10 mi
4:53 AM45 °FPassing clouds.6 mph93%30.25 "Hg10 mi
Weather by CustomWeather, © 2014

See weather overviewHow to use our weather pages